Location: Newark
(47.4000°N, 7.5833°E)
Time: 06:26:53
(UTC+00:00)

N. Korean satellite - Pass Details

Date: 02 February 2020
Orbit: 456 x 505 km, 97.2° (Epoch: 27 February)

Event Time Altitude Azimuth Distance (km) Brightness Sun altitude
Rises 17:37:41 0° 215° (SW) 2,469 11.0 -11.4°
Reaches altitude 10° 17:41:00 10° 251° (WSW) 1,610 10.7 -11.9°
Maximum altitude 17:42:09 11° 271° (W) 1,533 10.4 -12.1°
Drops below altitude 10° 17:43:19 10° 291° (WNW) 1,621 10.2 -12.3°
Sets 17:46:43 0° 327° (NNW) 2,516 10.5 -12.9°
